Location: Unspecified
(26.7756°N, 0.0000°E)
Time: 09:41:35
(UTC+00:00)

S-56A Canister/Altair - All Passes

Search period start: 04 April 2026 00:00
Search period end: 14 April 2026 00:00
Orbit: 632 x 2485 km, 38.9° (Epoch: 28 March)

Date Brightness Start Highest point End Pass type
(mag) Time Alt. Az. Time Alt. Az. Time Alt. Az.
4 Apr - 05:53:28 10° SSW 06:05:25 43° SE 06:19:02 10° ENE daylight
4 Apr - 07:57:02 10° WSW 08:11:31 86° NNW 08:26:08 10° ENE daylight
4 Apr - 10:04:52 10° W 10:19:33 53° NNW 10:31:57 10° ENE daylight
4 Apr - 12:14:21 10° WNW 12:27:59 50° N 12:37:53 10° E daylight
4 Apr - 14:22:29 10° WNW 14:34:44 84° NNE 14:42:41 10° ESE daylight
4 Apr - 16:30:44 10° WNW 16:38:24 27° SW 16:44:00 10° S daylight
5 Apr - 05:18:50 10° SSW 05:29:50 36° SE 05:42:45 10° ENE visible
5 Apr - 07:21:31 10° SW 07:35:31 88° SSE 07:50:28 10° ENE daylight
5 Apr - 09:28:42 10° W 09:43:24 56° NNW 09:56:31 10° ENE daylight
5 Apr - 11:38:00 10° WNW 11:52:03 49° N 12:02:41 10° ENE daylight
5 Apr - 13:46:20 10° WNW 13:59:19 76° NNE 14:07:53 10° ESE daylight
5 Apr - 15:54:22 10° WNW 16:03:33 36° SW 16:09:57 10° SSE daylight
6 Apr - 04:44:26 10° S 04:54:22 30° SE 05:06:14 10° ENE visible
6 Apr - 06:46:11 10° SW 06:59:35 80° SE 07:14:41 10° ENE daylight
6 Apr - 08:52:38 10° W 09:07:14 59° NNW 09:21:01 10° ENE daylight
6 Apr - 11:01:41 10° WNW 11:16:01 49° N 11:27:22 10° ENE daylight
6 Apr - 13:10:10 10° WNW 13:23:46 70° NNE 13:32:59 10° ESE daylight
6 Apr - 15:18:04 10° WNW 15:28:36 45° SW 15:35:43 10° SSE daylight
7 Apr - 04:10:17 10° S 04:19:01 25° SE 04:29:25 10° E visible
7 Apr - 06:11:00 10° SW 06:23:43 73° SE 06:38:48 10° ENE daylight
7 Apr - 08:16:44 10° W 08:31:03 63° NNW 08:45:24 10° ENE daylight
7 Apr - 10:25:24 10° WNW 10:39:54 50° N 10:51:56 10° ENE daylight
7 Apr - 12:33:58 10° WNW 12:48:04 65° NNE 12:57:58 10° ESE daylight
7 Apr - 14:41:49 10° WNW 14:53:31 55° SW 15:01:19 10° SSE daylight
8 Apr - 03:36:33 10° SSE 03:43:45 19° SE 03:52:14 10° E visible
8 Apr - 05:35:59 10° SW 05:47:58 65° SE 06:02:47 10° ENE daylight
8 Apr - 07:40:58 10° WSW 07:54:53 67° NNW 08:09:42 10° ENE daylight
8 Apr - 09:49:12 10° WNW 10:03:42 50° N 10:16:26 10° ENE daylight
8 Apr - 11:57:47 10° WNW 12:12:14 62° NNE 12:22:51 10° E daylight
8 Apr - 14:05:35 10° WNW 14:18:17 65° SW 14:26:48 10° SE daylight
8 Apr - 16:16:37 10° W 16:21:13 14° SW 16:25:08 10° SSW daylight
9 Apr - 03:03:30 10° SSE 03:08:35 14° SE 03:14:20 10° E visible
9 Apr - 05:01:08 10° SSW 05:12:19 56° SE 05:26:39 10° ENE visible
9 Apr - 07:05:23 10° WSW 07:18:47 72° NNW 07:33:54 10° ENE daylight
9 Apr - 09:13:05 10° WNW 09:27:28 51° N 09:40:49 10° ENE daylight
9 Apr - 11:21:36 10° WNW 11:36:18 59° NNE 11:47:36 10° E daylight
9 Apr - 13:29:22 10° WNW 13:42:56 75° SW 13:52:08 10° SE daylight
9 Apr - 15:39:10 10° W 15:46:20 20° SW 15:52:01 10° S daylight
10 Apr - 04:26:26 10° SSW 04:36:48 48° SE 04:50:24 10° ENE visible
10 Apr - 06:29:56 10° WSW 06:42:44 77° NNW 06:58:00 10° ENE daylight
10 Apr - 08:37:05 10° W 08:51:12 52° N 09:05:06 10° ENE daylight
10 Apr - 10:45:27 10° WNW 11:00:15 56° NNE 11:12:14 10° E daylight
10 Apr - 12:53:11 10° WNW 13:07:26 84° SW 13:17:21 10° SE daylight
10 Apr - 15:02:15 10° WNW 15:11:24 26° SW 15:18:18 10° S daylight
11 Apr - 03:51:56 10° SSW 04:01:25 41° SE 04:14:01 10° ENE visible
11 Apr - 05:54:39 10° WSW 06:06:46 83° NNW 06:22:03 10° ENE daylight
11 Apr - 08:01:12 10° W 08:14:56 54° N 08:29:18 10° ENE daylight
11 Apr - 10:09:22 10° WNW 10:24:07 54° N 10:36:43 10° E daylight
11 Apr - 12:17:03 10° WNW 12:31:47 88° NNE 12:42:26 10° ESE daylight
11 Apr - 14:25:34 10° WNW 14:36:21 33° SW 14:44:16 10° S daylight
12 Apr - 03:17:37 10° S 03:26:09 33° SE 03:37:30 10° ENE visible
12 Apr - 05:19:30 10° WSW 05:30:55 90° SSE 05:46:01 10° ENE daylight
12 Apr - 07:25:27 10° W 07:38:42 55° NNW 07:53:23 10° ENE daylight
12 Apr - 09:33:20 10° WNW 09:47:55 53° N 10:01:05 10° E daylight
12 Apr - 11:40:56 10° WNW 11:56:00 81° NNE 12:07:22 10° ESE daylight
12 Apr - 13:49:04 10° WNW 14:01:10 41° SW 14:09:59 10° SSE daylight
13 Apr - 02:43:31 10° S 02:51:01 27° SE 03:00:47 10° ENE visible
13 Apr - 04:44:31 10° SW 04:55:12 82° SE 05:09:54 10° ENE visible
13 Apr - 06:49:51 10° W 07:02:31 58° NNW 07:17:24 10° ENE daylight
13 Apr - 08:57:24 10° WNW 09:11:39 52° N 09:25:20 10° E daylight
13 Apr - 11:04:53 10° WNW 11:20:07 75° NNE 11:32:10 10° ESE daylight
13 Apr - 13:12:40 10° WNW 13:25:52 49° SW 13:35:32 10° SSE daylight
